Flag for Sweden Weather past 2 weeks in Halmstad, Sweden

Now
75 °F

Mild.


Feels Like: 78 °F
Forecast: 59 / 67 °F
Wind: 13 mph from Southeast

Location: Halmstad Swedish Air Force Base

Current Time: Aug 4, 2015 at 8:35:43 PM

Latest Report: Aug 4, 2015 at 7:50 PM


Visibility: N/A

Pressure: 29.86 "Hg

Humidity: 44%

Dew point: 52 °F

Location of HalmstadLocation

Historic Weather in Halmstad — Graph

°F

Halmstad temperature yesterday

Maximum temperature yesterday: 75 °F (at 4:50 PM)
Minimum temperature yesterday: 48 °F (at 5:20 AM)
Average temperature yesterday: 64 °F

Past Weeks' High & Low Weather Summary

 TemperatureHumidityPressure
High81 °F (Aug 4, 1:20 PM)94% (Jul 21, 3:20 AM)30.15 "Hg (Jul 21, 3:20 AM)
Low48 °F (Aug 3, 5:20 AM)37% (Aug 4, 3:20 PM)29.33 "Hg (Jul 26, 5:50 AM)
Average60 °F73%29.77 "Hg
* Reported Jul 20 7:20 PM — Aug 4 7:20 PM, Halmstad, Weather by CustomWeather, © 2015

Note: Actual official high and low records may vary slightly from our data, if they occured in-between our weather recording intervals... More about our weather records

Advertising

Halmstad weather history for previous 24 hours

 ConditionsComfort  
Time TempWeatherWind HumidityBarometerVisibility
7:20 PM
Tue, Aug 4
75 °FPassing clouds.15 mph44%29.86 "HgN/A
6:50 PM77 °FScattered clouds.15 mph42%29.89 "HgN/A
6:20 PM77 °FPassing clouds.14 mph42%29.89 "HgN/A
5:50 PM79 °FPassing clouds.14 mph42%29.89 "HgN/A
5:20 PM79 °FPassing clouds.13 mph42%29.89 "HgN/A
4:50 PM81 °FSunny.12 mph39%29.92 "Hg10 mi
4:20 PM81 °FPassing clouds.16 mph37%29.92 "HgN/A
3:50 PM81 °FPassing clouds.13 mph39%29.92 "HgN/A
3:20 PM81 °FPassing clouds.15 mph37%29.92 "HgN/A
2:50 PM81 °FPassing clouds.12 mph39%29.92 "HgN/A
2:20 PM81 °FPassing clouds.16 mph39%29.95 "HgN/A
1:50 PM81 °FPassing clouds.14 mph39%29.95 "HgN/A
1:20 PM81 °FSunny.15 mph42%29.95 "Hg10 mi
12:50 PM79 °FPassing clouds.15 mph45%29.95 "HgN/A
12:20 PM77 °FPassing clouds.14 mph47%29.98 "HgN/A
11:50 AM75 °FSunny.13 mph50%29.98 "Hg10 mi
11:20 AM73 °FPassing clouds.12 mph53%29.98 "HgN/A
10:20 AM72 °FPassing clouds.13 mph57%29.98 "HgN/A
9:50 AM70 °FPassing clouds.12 mph57%30.01 "HgN/A
9:20 AM68 °FPassing clouds.10 mph60%30.01 "HgN/A
8:50 AM66 °FSunny.10 mph64%30.01 "Hg10 mi
7:20 AM63 °FMild.9 mph68%30.04 "HgN/A
6:50 AM61 °FCool.10 mph72%30.04 "HgN/A
6:20 AM61 °FCool.10 mph72%30.04 "HgN/A
5:50 AM61 °FPassing clouds.10 mph72%30.04 "HgN/A
5:20 AM61 °FPassing clouds.12 mph72%30.04 "HgN/A
4:50 AM61 °FPassing clouds.10 mph68%30.04 "HgN/A
4:20 AM61 °FPassing clouds.8 mph68%30.07 "HgN/A
3:50 AM61 °FPassing clouds.9 mph63%30.07 "HgN/A
3:20 AM61 °FCool.10 mph63%30.07 "HgN/A
2:50 AM61 °FPassing clouds.10 mph63%30.07 "HgN/A
2:20 AM61 °FPassing clouds.9 mph63%30.07 "HgN/A
1:50 AM61 °FPassing clouds.10 mph63%30.09 "HgN/A
1:20 AM61 °FCool.9 mph63%30.09 "HgN/A
12:50 AM63 °FPassing clouds.9 mph56%30.09 "HgN/A
12:20 AM63 °FMild.12 mph59%30.09 "HgN/A
11:20 PM
Mon, Aug 3
64 °FMild.10 mph56%30.09 "HgN/A
10:50 PM64 °FMild.10 mph56%30.09 "HgN/A
10:20 PM66 °FMild.9 mph56%30.09 "HgN/A
9:50 PM68 °FMild.9 mph53%30.09 "HgN/A
9:20 PM68 °FMild.10 mph56%30.09 "HgN/A
8:50 PM70 °FMild.9 mph57%30.09 "HgN/A
8:20 PM72 °FMild.12 mph53%30.07 "HgN/A
Weather by CustomWeather, © 2015

See weather overviewHow to use our weather pages